• In Deutschland
  • Länderverzeichnis
  • Für 7 Tage
  • Wassertemperatur
  • Satellitenkarten
  • Wetterkarte
  • Widgets
  • user-avatar
    Anmelden

    Stündliche Wetter Kchulna

    Heute, 23 Juni, Freitag

    Zeit Temperatur Niederschläge Wind Luftdruck Luftfeuchtigkeit
    00:00 +30°C° 0 mm 1 m/S 750 mmHg 84%
    01:00 +30°C° 0 mm 1 m/S 750 mmHg 85%
    02:00 +30°C° 0 mm 1 m/S 749 mmHg 85%
    03:00 +30°C° 0 mm 1 m/S 749 mmHg 86%
    04:00 +30°C° 0 mm 1 m/S 749 mmHg 86%
    05:00 +30°C° 0 mm 1 m/S 749 mmHg 85%
    06:00 +30°C° 0 mm 1 m/S 750 mmHg 83%
    07:00 +31°C° 0 mm 1 m/S 750 mmHg 78%
    08:00 +32°C° 0 mm 1 m/S 750 mmHg 72%
    09:00 +33°C° 0 mm 1 m/S 750 mmHg 67%
    10:00 +34°C° 0,7 mm 1 m/S 750 mmHg 64%
    11:00 +35°C° 0,7 mm 1 m/S 750 mmHg 60%
    12:00 +36°C° 0 mm 2 m/S 750 mmHg 59%
    13:00 +36°C° 1,5 mm 2 m/S 749 mmHg 59%
    14:00 +36°C° 1,5 mm 2 m/S 748 mmHg 59%
    15:00 +35°C° 1,5 mm 1 m/S 748 mmHg 59%
    16:00 +36°C° 0,8 mm 2 m/S 748 mmHg 62%
    17:00 +35°C° 0,8 mm 2 m/S 748 mmHg 66%
    18:00 +33°C° 0 mm 1 m/S 748 mmHg 71%
    19:00 +32°C° 0 mm 1 m/S 748 mmHg 74%
    20:00 +32°C° 0 mm 1 m/S 748 mmHg 77%
    21:00 +31°C° 0 mm 1 m/S 748 mmHg 79%
    22:00 +31°C° 0 mm 1 m/S 749 mmHg 80%
    23:00 +31°C° 0 mm 1 m/S 749 mmHg 82%

    Morgen, 24 Juni, Samstag

    Zeit Temperatur Niederschläge Wind Luftdruck Luftfeuchtigkeit
    00:00 +30°C° 0 mm 2 m/S 749 mmHg 83%
    01:00 +30°C° 0 mm 2 m/S 749 mmHg 85%
    02:00 +30°C° 0 mm 2 m/S 748 mmHg 86%
    03:00 +29°C° 0 mm 2 m/S 748 mmHg 88%
    04:00 +29°C° 0 mm 2 m/S 748 mmHg 88%
    05:00 +29°C° 0 mm 2 m/S 748 mmHg 89%
    06:00 +29°C° 0 mm 2 m/S 748 mmHg 89%
    07:00 +30°C° 0 mm 2 m/S 748 mmHg 82%
    08:00 +33°C° 0 mm 3 m/S 748 mmHg 75%
    09:00 +34°C° 0 mm 3 m/S 749 mmHg 68%
    10:00 +35°C° 0,2 mm 3 m/S 748 mmHg 64%
    11:00 +36°C° 0,2 mm 3 m/S 748 mmHg 61%
    12:00 +37°C° 0,2 mm 3 m/S 748 mmHg 57%
    13:00 +37°C° 0,9 mm 4 m/S 747 mmHg 57%
    14:00 +37°C° 0,9 mm 4 m/S 747 mmHg 57%
    15:00 +37°C° 0,9 mm 4 m/S 746 mmHg 58%
    16:00 +36°C° 0,9 mm 4 m/S 746 mmHg 62%
    17:00 +35°C° 0,9 mm 4 m/S 746 mmHg 66%
    18:00 +34°C° 0,9 mm 3 m/S 746 mmHg 70%
    19:00 +33°C° 0 mm 3 m/S 747 mmHg 74%
    20:00 +31°C° 0 mm 3 m/S 747 mmHg 77%
    21:00 +30°C° 0 mm 3 m/S 748 mmHg 80%
    22:00 +30°C° 0 mm 3 m/S 748 mmHg 82%
    23:00 +30°C° 0 mm 3 m/S 749 mmHg 83%

    übermorgen, 25 Juni, Sonntag

    Zeit Temperatur Niederschläge Wind Luftdruck Luftfeuchtigkeit
    00:00 +30°C° 0 mm 3 m/S 749 mmHg 85%
    01:00 +29°C° 0 mm 3 m/S 749 mmHg 86%
    02:00 +29°C° 0 mm 3 m/S 748 mmHg 87%
    03:00 +29°C° 0 mm 3 m/S 748 mmHg 88%
    04:00 +29°C° 0 mm 3 m/S 748 mmHg 88%
    05:00 +29°C° 0 mm 3 m/S 748 mmHg 88%
    06:00 +29°C° 0 mm 3 m/S 748 mmHg 88%
    07:00 +30°C° 0 mm 3 m/S 749 mmHg 82%
    08:00 +33°C° 0 mm 4 m/S 749 mmHg 75%
    09:00 +34°C° 0 mm 4 m/S 749 mmHg 68%
    10:00 +35°C° 0,1 mm 4 m/S 749 mmHg 64%
    11:00 +36°C° 0,1 mm 4 m/S 749 mmHg 59%
    12:00 +37°C° 0,1 mm 5 m/S 749 mmHg 55%
    13:00 +37°C° 1 mm 5 m/S 748 mmHg 56%
    14:00 +37°C° 1 mm 5 m/S 747 mmHg 57%
    15:00 +37°C° 1 mm 5 m/S 747 mmHg 58%
    16:00 +36°C° 0,1 mm 5 m/S 747 mmHg 61%
    17:00 +35°C° 0,1 mm 4 m/S 747 mmHg 65%
    18:00 +34°C° 0,1 mm 4 m/S 747 mmHg 68%
    19:00 +33°C° 0 mm 4 m/S 748 mmHg 72%
    20:00 +31°C° 0 mm 3 m/S 748 mmHg 76%
    21:00 +30°C° 0 mm 3 m/S 749 mmHg 80%
    22:00 +30°C° 0 mm 3 m/S 749 mmHg 82%
    23:00 +30°C° 0 mm 2 m/S 749 mmHg 84%

    26 Juni, Montag

    Zeit Temperatur Niederschläge Wind Luftdruck Luftfeuchtigkeit
    00:00 +30°C° 0 mm 2 m/S 749 mmHg 86%
    01:00 +29°C° 0 mm 2 m/S 749 mmHg 87%
    02:00 +29°C° 0 mm 2 m/S 749 mmHg 88%
    03:00 +29°C° 0 mm 1 m/S 749 mmHg 89%
    04:00 +29°C° 0 mm 2 m/S 749 mmHg 89%
    05:00 +29°C° 0 mm 2 m/S 749 mmHg 89%
    06:00 +29°C° 0 mm 2 m/S 749 mmHg 89%
    07:00 +31°C° 0 mm 2 m/S 750 mmHg 82%
    08:00 +33°C° 0 mm 3 m/S 750 mmHg 75%
    09:00 +34°C° 0 mm 3 m/S 750 mmHg 67%
    10:00 +35°C° 0,1 mm 3 m/S 750 mmHg 64%
    11:00 +36°C° 0,1 mm 3 m/S 750 mmHg 60%
    12:00 +37°C° 0,1 mm 3 m/S 749 mmHg 56%
    13:00 +37°C° 0,7 mm 3 m/S 749 mmHg 56%
    14:00 +37°C° 0,7 mm 3 m/S 748 mmHg 55%
    15:00 +38°C° 0,7 mm 4 m/S 747 mmHg 54%
    16:00 +37°C° 0,1 mm 4 m/S 747 mmHg 57%
    17:00 +36°C° 0,1 mm 4 m/S 747 mmHg 60%
    18:00 +35°C° 0,1 mm 4 m/S 747 mmHg 63%
    19:00 +34°C° 0 mm 4 m/S 748 mmHg 67%
    20:00 +33°C° 0 mm 3 m/S 749 mmHg 71%
    21:00 +31°C° 0 mm 3 m/S 749 mmHg 75%
    22:00 +31°C° 0 mm 3 m/S 750 mmHg 77%
    23:00 +30°C° 0 mm 3 m/S 750 mmHg 79%

    27 Juni, Dienstag

    Zeit Temperatur Niederschläge Wind Luftdruck Luftfeuchtigkeit
    00:00 +30°C° 0 mm 3 m/S 750 mmHg 81%
    01:00 +30°C° 0 mm 2 m/S 749 mmHg 82%
    02:00 +30°C° 0 mm 2 m/S 749 mmHg 84%
    03:00 +29°C° 0 mm 2 m/S 749 mmHg 85%
    04:00 +29°C° 0 mm 2 m/S 749 mmHg 86%
    05:00 +29°C° 0 mm 2 m/S 749 mmHg 87%
    06:00 +29°C° 0 mm 3 m/S 749 mmHg 87%
    07:00 +31°C° 0 mm 3 m/S 750 mmHg 81%
    08:00 +33°C° 0 mm 4 m/S 750 mmHg 74%
    09:00 +34°C° 0 mm 4 m/S 751 mmHg 67%
    10:00 +35°C° 0,1 mm 4 m/S 750 mmHg 63%
    11:00 +36°C° 0,1 mm 5 m/S 750 mmHg 59%
    12:00 +37°C° 0,1 mm 5 m/S 750 mmHg 55%
    13:00 +37°C° 0,7 mm 5 m/S 749 mmHg 55%
    14:00 +37°C° 0,7 mm 5 m/S 749 mmHg 55%
    15:00 +37°C° 0,7 mm 5 m/S 748 mmHg 55%
    16:00 +36°C° 1 mm 5 m/S 748 mmHg 59%
    17:00 +35°C° 1 mm 5 m/S 748 mmHg 63%
    18:00 +34°C° 1 mm 4 m/S 748 mmHg 67%
    19:00 +33°C° 0 mm 4 m/S 749 mmHg 70%
    20:00 +33°C° 0 mm 4 m/S 750 mmHg 74%
    21:00 +32°C° 0 mm 4 m/S 751 mmHg 77%
    22:00 +30°C° 0 mm 3 m/S 751 mmHg 79%
    23:00 +30°C° 0 mm 3 m/S 751 mmHg 81%

    28 Juni, Mittwoch

    Zeit Temperatur Niederschläge Wind Luftdruck Luftfeuchtigkeit
    00:00 +30°C° 0 mm 3 m/S 751 mmHg 82%
    01:00 +30°C° 0 mm 2 m/S 750 mmHg 84%
    02:00 +29°C° 0 mm 2 m/S 750 mmHg 85%
    03:00 +29°C° 0 mm 2 m/S 750 mmHg 86%
    04:00 +29°C° 0 mm 3 m/S 750 mmHg 87%
    05:00 +29°C° 0 mm 3 m/S 750 mmHg 87%
    06:00 +29°C° 0 mm 3 m/S 750 mmHg 87%
    07:00 +32°C° 0 mm 4 m/S 750 mmHg 80%
    08:00 +33°C° 0 mm 4 m/S 751 mmHg 73%
    09:00 +35°C° 0 mm 5 m/S 751 mmHg 66%
    10:00 +36°C° 0,1 mm 5 m/S 751 mmHg 61%
    11:00 +37°C° 0,1 mm 5 m/S 751 mmHg 57%
    12:00 +39°C° 0,1 mm 5 m/S 750 mmHg 53%
    13:00 +39°C° 0,7 mm 6 m/S 750 mmHg 54%
    14:00 +38°C° 0,7 mm 6 m/S 749 mmHg 54%
    15:00 +38°C° 0,7 mm 6 m/S 749 mmHg 55%
    16:00 +36°C° 0,1 mm 6 m/S 749 mmHg 59%
    17:00 +35°C° 0,1 mm 5 m/S 748 mmHg 62%
    18:00 +34°C° 0,1 mm 5 m/S 748 mmHg 65%
    19:00 +34°C° 0 mm 5 m/S 749 mmHg 69%
    20:00 +33°C° 0 mm 4 m/S 750 mmHg 73%
    21:00 +32°C° 0 mm 4 m/S 750 mmHg 76%
    22:00 +30°C° 0 mm 3 m/S 750 mmHg 78%
    23:00 +30°C° 0 mm 3 m/S 750 mmHg 80%
    Mehr zeigen